Location: Bannatyne
(13.0833°N, 59.5333°W)
Time: 10:39:26
(UTC+00:00)

Explorer 7 - Pass Details

Date: 31 January 2020
Orbit: 485 x 679 km, 50.3° (Epoch: 20 February)

Event Time Altitude Azimuth Distance (km) Brightness Sun altitude
Rises 21:06:33 0° 200° (SSW) 2,847 11.1 11.1°
Reaches altitude 10° 21:09:05 10° 190° (S) 1,908 10.1 10.5°
Maximum altitude 21:12:57 31° 127° (SE) 987 7.9 9.7°
Drops below altitude 10° 21:16:37 10° 64° (ENE) 1,799 8.8 8.8°
Sets 21:18:56 0° 54° (NE) 2,657 9.7 8.3°
